Minot, ND

4:39 AM CDT on June 25, 2017 (GMT -0500)
Minot International

Weather History for KMOT - December, 2012

Change the Weather History Date:

Saturday, December 15, 2012

  Actual Average Record
Temperature  
Mean Temperature 16 °F 15 °F  
Max Temperature 26 °F 23 °F 56 °F (1939)
Min Temperature 6 °F 7 °F -28 °F (1917)
Degree Days  
Heating Degree Days 49 50  
Month to date heating degree days 705 713  
Since 1 July heating degree days 2789 2771  
Moisture  
Dew Point 15 °F    
Average Humidity 86    
Maximum Humidity 92    
Minimum Humidity 80    
Precipitation  
Precipitation T in 0.01 in 0.30 in (1915)
Month to date precipitation 0.04 0.18  
Year to date precipitation 13.58 16.99  
Sea Level Pressure  
Sea Level Pressure 29.80 in    
Wind  
Wind Speed 8 mph (WNW)    
Max Wind Speed 20 mph    
Max Gust Speed 23 mph    
Visibility 8 miles    
Events Fog , Snow    
T = Trace of Precipitation, MM = Missing Value Source: NWS Daily Summary

Daily Weather History Graph

Daily Weather History Graph

Search for Another Location

Airport or City:

Trip Planner

Search our weather history database for the weather conditions in past years. The results will help you decide how hot, cold, wet, or windy it might be!

Date:

Astronomy

Dec. 15, 2012 Rise Set
Actual Time 8:29 AM CST 4:51 PM CST
Civil Twilight 7:53 AM CST 5:27 PM CST
Nautical Twilight 7:13 AM CST 6:07 PM CST
Astronomical Twilight 6:35 AM CST 6:45 PM CST
Moon 10:15 AM CST (12/15) 8:08 PM CST (12/15)
Length of Visible Light 9h 34m
Length of Day
8h 21m
Waxing Crescent, 8% of the Moon is Illuminated
Dec 15
Waxing Crescent
Dec 19
First Quarter
Dec 28
Full
Jan 4
Last Quarter
Jan 11
New

Hourly Weather History & Observations

Time (CST) Temp. Windchill Dew Point Humidity Pressure Visibility Wind Dir Wind Speed Gust Speed Precip Events Conditions
12:54 AM 8.1 °F - 5.0 °F 87% 29.78 in 6.0 mi Calm Calm - N/A   Clear
1:54 AM 8.1 °F - 5.0 °F 87% 29.77 in 5.0 mi Calm Calm - N/A   Clear
2:54 AM 7.0 °F 0.1 °F 3.9 °F 87% 29.78 in 6.0 mi South 3.5 mph - N/A   Clear
3:54 AM 10.0 °F -0.9 °F 6.1 °F 84% 29.78 in 10.0 mi SW 6.9 mph - N/A   Clear
4:54 AM 8.1 °F -4.3 °F 5.0 °F 87% 29.79 in 10.0 mi SW 8.1 mph - N/A   Clear
5:54 AM 12.9 °F 2.6 °F 9.0 °F 84% 29.79 in 10.0 mi West 6.9 mph - N/A   Clear
6:54 AM 12.9 °F 1.6 °F 9.0 °F 84% 29.81 in 10.0 mi West 8.1 mph - N/A   Clear
7:54 AM 12.0 °F 1.5 °F 9.0 °F 88% 29.82 in 10.0 mi West 6.9 mph - N/A   Clear
8:54 AM 15.1 °F 5.2 °F 10.9 °F 84% 29.82 in 10.0 mi West 6.9 mph - N/A   Scattered Clouds
9:54 AM 16.0 °F 6.3 °F 12.0 °F 84% 29.83 in 10.0 mi WSW 6.9 mph - N/A   Clear
10:34 AM 19.4 °F 6.0 °F 15.8 °F 86% 29.74 in 10.0 mi WNW 13.8 mph - N/A   Scattered Clouds
10:44 AM 19.4 °F 6.0 °F 17.6 °F 93% 29.75 in 10.0 mi WNW 13.8 mph - N/A   Mostly Cloudy
10:54 AM 21.0 °F 9.3 °F 19.0 °F 92% 29.85 in 8.0 mi WNW 11.5 mph - N/A   Mostly Cloudy
11:01 AM 21.2 °F 8.9 °F 19.4 °F 93% 29.75 in 6.0 mi WNW 12.7 mph - N/A   Overcast
11:13 AM 23.0 °F 13.1 °F 21.2 °F 93% 29.75 in 1.8 mi NW 9.2 mph - N/A   Overcast
11:39 AM 23.0 °F 11.7 °F 21.2 °F 93% 29.74 in 0.8 mi NW 11.5 mph - N/A   Overcast
11:49 AM 24.8 °F 14.6 °F 21.2 °F 86% 29.74 in 1.0 mi NW 10.4 mph - N/A   Overcast
11:54 AM 24.1 °F 14.4 °F 21.9 °F 91% 29.85 in 2.0 mi NW 9.2 mph - N/A   Overcast
12:02 PM 24.8 °F 12.4 °F 21.2 °F 86% 29.75 in 9.0 mi WNW 15.0 mph 21.9 mph N/A   Overcast
12:54 PM 24.1 °F 11.5 °F 21.9 °F 91% 29.83 in 8.0 mi NW 15.0 mph - N/A   Overcast
1:54 PM 25.0 °F 14.2 °F 23.0 °F 92% 29.82 in 10.0 mi NW 11.5 mph - N/A   Overcast
2:54 PM 26.1 °F 15.6 °F 24.1 °F 92% 29.83 in 10.0 mi NW 11.5 mph - N/A   Overcast
3:05 PM 26.6 °F 17.5 °F 24.8 °F 93% 29.73 in 10.0 mi NW 9.2 mph - N/A   Overcast
3:54 PM 26.6 °F 15.7 °F 23.0 °F 86% 29.74 in 9.0 mi WNW 12.7 mph - N/A   Overcast
4:54 PM 23.0 °F 11.7 °F 19.9 °F 88% 29.86 in 10.0 mi NW 11.5 mph - N/A   Scattered Clouds
5:02 PM 23.0 °F 12.4 °F 19.4 °F 86% 29.76 in 10.0 mi NW 10.4 mph - N/A   Mostly Cloudy
5:54 PM 23.0 °F 14.7 °F 19.9 °F 88% 29.86 in 10.0 mi NW 6.9 mph - N/A   Overcast
6:27 PM 19.4 °F 14.3 °F 17.6 °F 93% 29.76 in 10.0 mi West 3.5 mph - N/A   Scattered Clouds
6:54 PM 18.0 °F 9.8 °F 16.0 °F 92% 29.87 in 9.0 mi WSW 5.8 mph - N/A   Clear
7:54 PM 18.0 °F 8.7 °F 16.0 °F 92% 29.87 in 10.0 mi WSW 6.9 mph - N/A   Clear
8:54 PM 17.1 °F 5.8 °F 15.1 °F 92% 29.87 in 10.0 mi WSW 9.2 mph - N/A   Clear
9:54 PM 16.0 °F 5.3 °F 12.9 °F 88% 29.88 in 10.0 mi West 8.1 mph - N/A   Clear
10:23 PM 14.0 °F 2.0 °F 12.2 °F 93% 29.78 in 10.0 mi WNW 9.2 mph - N/A   Scattered Clouds
10:31 PM 15.8 °F 5.1 °F 12.2 °F 86% 29.78 in 10.0 mi WNW 8.1 mph - N/A   Mostly Cloudy
10:38 PM 17.6 °F 6.4 °F 14.0 °F 86% 29.78 in 10.0 mi WNW 9.2 mph - N/A   Mostly Cloudy
10:54 PM 17.1 °F 5.8 °F 14.0 °F 88% 29.88 in 10.0 mi WNW 9.2 mph - N/A   Overcast
11:28 PM 15.8 °F 2.7 °F 15.8 °F 100% 29.79 in 1.8 mi WNW 11.5 mph - N/A   Overcast
11:54 PM 15.1 °F 1.8 °F 12.9 °F 91% 29.88 in 0.5 mi NW 11.5 mph - 0.00 in Fog , Snow Light Snow